Content
SEND FEEDBACK

Daily
Averages
Monthly
Summary
United States of America

YUTAN, NEBRASKA


Home > North America > United States > Nebraska
Elevation: 360 meters     Latitude: 41 10N     Longitude: 096 25W

WEATHER
 
SELECT A DAY
Number of Records: 77,899;   Date Range: 5/17/11 - 8/27/14
 
SHARE

PRINT THIS DATA

[ ← Previous Day ]
WEATHER ALMANAC - 13 FEBRUARY, 2013
[ Next Day → ]
[ °F ]   °C
Weather ElementAverageHighLow
Temperature4.2 °C12.4 °C (3:15 pm)-2.5 °C (5:55 am)
Dewpoint-2.9 °C-0.7 °C (11:15 am)-5 °C (1:55 am)
Humidity63.3 %86 % (5:55 am)35 % (3:15 pm)
Barometer1009.5 hPa1012.5 hPa (12:35 am)1006.4 hPa (4:35 pm)
Wind Speed13.4 km/h25.9 km/h (3:35 pm)
Wind Gust33.3 km/h (2:35 pm)
Weather ElementAverage
Visibility16.1 km
Wind DirectionWSW (236.1 °)

Weather ElementTotal
Precipitation0.25 mm
Heating Degree Days13.4 (Base 18.3)
Averaged from 71 records on 13 February, 2013
WEATHER CONDITIONS BREAKOUT
WIND DIRECTION BREAKOUT
WEATHER BY HOUR - 13 FEBRUARY, 2013
[ °F ]   °C
Local TimeTemperatureDewpointHumidityBarometerVisibilityWind DirectionWind SpeedGust SpeedPrecipitationEventsConditions
12:35 AM-1 °C-4.6 °C77 %1012.5 hPa16.1 kmWest (260°)11.1 km/hClear
12:55 AM-1.1 °C-4.6 °C77 %1012.5 hPa16.1 kmWSW (250°)7.4 km/hClear
1:15 AM-1.5 °C-4.9 °C78 %1012.5 hPa16.1 kmWSW (250°)5.6 km/hClear
1:35 AM-1.5 °C-4.8 °C78 %1012.5 hPa16.1 kmCalmClear
1:55 AM-1.7 °C-5 °C78 %1012.5 hPa16.1 kmWest (260°)5.6 km/hClear
2:15 AM-1.9 °C-5 °C80 %1012.5 hPa16.1 kmCalmClear
2:35 AM-1.9 °C-4.8 °C81 %1012.2 hPa16.1 kmWSW (250°)7.4 km/hClear
2:55 AM-2 °C-4.8 °C81 %1012.2 hPa16.1 kmWest (260°)7.4 km/hClear
3:15 AM-1.6 °C-4.7 °C80 %1011.9 hPa16.1 kmWSW (250°)11.1 km/hClear
3:35 AM-1.8 °C-4.7 °C81 %1011.9 hPa16.1 kmWest (260°)9.3 km/hClear
3:55 AM-2.1 °C-4.9 °C81 %1011.5 hPa16.1 kmWSW (240°)5.6 km/hClear
4:15 AM-1.7 °C-4.6 °C81 %1011.5 hPa16.1 kmWest (260°)11.1 km/hClear
4:35 AM-2.1 °C-4.8 °C82 %1011.2 hPa16.1 kmWSW (250°)7.4 km/hClear
4:55 AM-2.1 °C-4.7 °C83 %1010.8 hPa16.1 kmWest (260°)9.3 km/hClear
5:15 AM-2.2 °C-4.8 °C83 %1010.8 hPa16.1 kmWest (260°)7.4 km/hClear
5:35 AM-2.2 °C-4.7 °C83 %1010.8 hPa16.1 kmWest (260°)9.3 km/hClear
5:55 AM-2.5 °C-4.6 °C86 %1010.8 hPa16.1 kmWest (260°)13 km/hClear
6:15 AM-2 °C-4.5 °C83 %1010.8 hPa16.1 kmWest (260°)7.4 km/hClear
6:35 AM-2.2 °C-4.6 °C84 %1010.8 hPa16.1 kmWest (260°)9.3 km/hClear
6:55 AM-1.8 °C-4.5 °C82 %1010.8 hPa16.1 kmWest (260°)9.3 km/hClear
7:15 AM-2.2 °C-4.6 °C84 %1010.8 hPa16.1 kmWest (270°)7.4 km/hClear
7:35 AM-1.8 °C-4.3 °C83 %1010.8 hPa16.1 kmWest (260°)7.4 km/hClear
7:55 AM-1.3 °C-3.8 °C83 %1010.8 hPa16.1 kmWSW (240°)5.6 km/hClear
8:15 AM-1 °C-3.7 °C82 %1010.8 hPa16.1 kmCalmClear
8:35 AM-0.5 °C-3.6 °C80 %1011.2 hPa16.1 kmWest (260°)5.6 km/hClear
8:55 AM-0.5 °C-3.5 °C80 %1011.2 hPa16.1 kmWSW (250°)7.4 km/hClear
9:15 AM0 °C-3.1 °C80 %1011.2 hPa16.1 kmCalmClear
9:35 AM1.3 °C-2.3 °C77 %1010.8 hPa16.1 kmWest (260°)14.8 km/hClear
9:55 AM2.2 °C-1.9 °C75 %1010.5 hPa16.1 kmWSW (240°)11.1 km/hClear
10:15 AM3.5 °C-1.7 °C69 %1010.5 hPa16.1 kmCalmClear
10:35 AM4.4 °C-1.2 °C67 %1010.2 hPa16.1 kmSW (220°)7.4 km/hClear
10:55 AM5.6 °C-1.1 °C62 %1010.2 hPa16.1 kmWSW (240°)9.3 km/hClear
11:15 AM7.3 °C-0.7 °C57 %1010.2 hPa16.1 kmWSW (240°)13 km/hClear
11:35 AM8.5 °C-1.1 °C51 %1010.2 hPa16.1 kmWSW (250°)16.7 km/hClear
11:55 AM9.1 °C-1.1 °C49 %1009.5 hPa16.1 kmSW (230°)16.7 km/h0.25 mmClear
12:15 PM9.7 °C-1.4 °C46 %1009.1 hPa16.1 kmSW (230°)20.4 km/h25.9 km/hClear
12:35 PM10.3 °C-1.6 °C44 %1009.1 hPa16.1 kmWSW (240°)20.4 km/hClear
12:55 PM10.7 °C-1.7 °C42 %1008.8 hPa16.1 kmSW (220°)18.5 km/hClear
1:15 PM11.2 °C-1.7 °C41 %1008.5 hPa16.1 kmWSW (250°)18.5 km/h25.9 km/hClear
1:35 PM11.4 °C-2.1 °C39 %1008.1 hPa16.1 kmWSW (250°)16.7 km/hClear
1:55 PM11.8 °C-2.2 °C38 %1008.1 hPa16.1 kmWSW (250°)24.1 km/h31.5 km/hClear
2:15 PM11.8 °C-2.7 °C37 %1007.8 hPa16.1 kmWSW (240°)22.2 km/h29.6 km/hClear
2:35 PM12 °C-2.5 °C37 %1007.5 hPa16.1 kmWSW (250°)22.2 km/h33.3 km/hClear
2:55 PM12 °C-2.7 °C36 %1006.8 hPa16.1 kmWSW (250°)18.5 km/h29.6 km/hClear
3:15 PM12.4 °C-2.6 °C35 %1006.8 hPa16.1 kmWSW (240°)16.7 km/h33.3 km/hClear
3:35 PM12.3 °C-3 °C35 %1006.8 hPa16.1 kmWSW (240°)25.9 km/hClear
3:55 PM11.6 °C-3.4 °C35 %1006.8 hPa16.1 kmWSW (240°)20.4 km/h33.3 km/hClear
4:15 PM11.3 °C-3.1 °C37 %1006.8 hPa16.1 kmWSW (240°)22.2 km/h31.5 km/hClear
4:35 PM11.3 °C-3.4 °C36 %1006.4 hPa16.1 kmWSW (250°)14.8 km/h31.5 km/hScattered Clouds
4:55 PM11.7 °C-3.2 °C35 %1006.4 hPa16.1 kmWSW (250°)18.5 km/h29.6 km/hScattered Clouds
5:15 PM10.3 °C-2.9 °C40 %1006.8 hPa16.1 kmSW (230°)14.8 km/hScattered Clouds
5:35 PM9.8 °C-2.2 °C43 %1006.4 hPa16.1 kmSW (230°)14.8 km/hOvercast
5:55 PM9.4 °C-2 °C45 %1006.4 hPa16.1 kmSW (230°)13 km/hOvercast
6:15 PM8.5 °C-1.6 °C49 %1006.8 hPa16.1 kmWSW (250°)11.1 km/hOvercast
6:35 PM6.9 °C-1.5 °C55 %1006.8 hPa16.1 kmWest (260°)14.8 km/hScattered Clouds
6:55 PM6.6 °C-1.9 °C55 %1006.8 hPa16.1 kmWest (270°)14.8 km/hClear
7:15 PM6.2 °C-2 °C56 %1007.1 hPa16.1 kmWest (260°)16.7 km/hClear
7:35 PM4.7 °C-2.3 °C61 %1007.1 hPa16.1 kmWest (260°)14.8 km/hClear
7:55 PM5 °C-2 °C61 %1007.1 hPa16.1 kmWest (260°)16.7 km/hMostly Cloudy
8:15 PM4.9 °C-2.1 °C61 %1007.1 hPa16.1 kmWSW (250°)14.8 km/hMostly Cloudy
8:35 PM5 °C-1.8 °C62 %1007.1 hPa16.1 kmWest (260°)20.4 km/hMostly Cloudy
8:55 PM4.6 °C-1.6 °C64 %1007.1 hPa16.1 kmWest (260°)22.2 km/hScattered Clouds
9:15 PM5.5 °C-1.3 °C62 %1007.5 hPa16.1 kmWest (270°)24.1 km/hMostly Cloudy
9:35 PM5.3 °C-1.3 °C63 %1007.8 hPa16.1 kmWest (270°)20.4 km/hMostly Cloudy
9:55 PM5.6 °C-1.1 °C62 %1007.8 hPa16.1 kmWest (270°)18.5 km/hMostly Cloudy
10:15 PM5.2 °C-1.2 °C64 %1008.1 hPa16.1 kmWest (270°)18.5 km/hScattered Clouds
10:35 PM6 °C-1 °C61 %1008.1 hPa16.1 kmWest (280°)18.5 km/hMostly Cloudy
10:55 PM5.5 °C-1.1 °C63 %1008.1 hPa16.1 kmWest (280°)16.7 km/hOvercast
11:15 PM5 °C-1 °C65 %1008.5 hPa16.1 kmWNW (300°)16.7 km/hScattered Clouds
11:35 PM5.2 °C-1 °C65 %1008.5 hPa16.1 kmWNW (300°)20.4 km/hScattered Clouds
11:55 PM5.2 °C-1 °C65 %1008.8 hPa16.1 kmWNW (290°)25.9 km/h31.5 km/hClear
Hourly data recorded from KAHQ, located 0 kilometers away from Yutan, Nebraska







STORIES FROM OUR PARTNERS